DELTA 1 DEB, 2224

Orbit data source: Space-Track

DELTA 1 DEB, 2224 is space debris in SSO originally from a launch on Mon, 28 Feb 1966 UTC launched from the Air Force Eastern Test Range (AFETR). Debris objects in space refer to the collection of defunct objects orbiting the Earth. Examples of debris include non-operational satellites, rocket bodies, and fragments generated from explosions, collisions, or faulty payload assembly.

Loading next visibility...
Identifier
2224, 1966-016D
Orbit
SSO
Country
Flag of USUS
Related business
Manufacturer
Unknown
Mission
Spacecraft
Bus & Motor
Unknown
Mass
1 kg wet, 1 kg dry
Launch date (UTC)
1966-02-28 (60 years ago)
Launch vehicle
Unknown
Launch site
Air Force Eastern Test Range (AFETR)
Object type
Payload
Rocket body
Debris
Shape & HBR
Unknown
Radar Cross Section
Small (<0.1 m²)

Expand to show TLE details & history
Last TLE update: 4 days ago

TLE from 4 days ago
0 DELTA 1 DEB
1 02224U 66016D   26031.74798371 -.00000026  00000-0  91903-4 0  9992
2 02224 101.1531 319.6800 0137894 133.4880 302.9171 12.52169866728826
Epoch: 2026-01-31T17:57Z
TLE epoch observation values (Epoch: 2026-01-31T17:57:05.792Z)
Latitude
71.50883°
Longitude
-116.47902°
Altitude
1,409.989 km
Speed
7.188 km/s
True Right ascension
18h 55m 03s
True Declination
71° 24' 50"
Sunlit
Object was in daylight at epoch
Visualization orbit readout
Latitude
Unknown
Longitude
Unknown
Altitude
Unknown
Speed
Unknown
Apparent Right ascension
Unknown
Apparent Declination
Unknown
Sunlit
N/A
Visualization observer readout
Local Sidereal Time
03:02:49
Azimuth
Unknown
Elevation
Unknown
Doppler factor
Unknown
Orbital elements
Apogee altitude
1,560.927 km
Perigee altitude
1,344.955 km
Semi-major axis
7,831.078 km
Eccentricity
0.01379
Inclination
101.1531°
RAAN
319.68°
Arg. of periapsis
133.488°
True anomaly
301.57822°
Mean anomaly
302.9171°
Eccentric anomaly
302.2489°
Mean motion
3.13192 °/min
Orbital period
114.95 mins
BSTAR
0.000091903
Loading maneuver chart data...
Computing Atmospheric mass density...
Loading historical data...
Loading historical data...
Loading historical data...
Loading historical data...
Loading historical data...
Loading historical data...
Loading historical data...
Other satellites on launch #16 in the year 1966 (1966-02-28 UTC)

Documentation

Showing up to 5 results
|